Regional Weather Roundup
Issued by NWS

Home | Current Version | Previous Version | Graphics & Text | Print | Product List | Glossary On
Versions: 1 2 3 4 5 6 7 8 9 10 11 12 13 14 15 16 17 18 19 20 21 22 23 24 25 26 27 28 29 30 31 32 33 34 35 36 37 38 39 40 41 42 43 44 45 46 47 48 49 50
000
ASUS43 KFSD 291510
RWRSD

WEATHER ROUNDUP FOR SOUTH DAKOTA
NATIONAL WEATHER SERVICE SIOUX FALLS SD
1000 AM CDT MON MAY 29 2017

NOTE: "FAIR" INDICATES FEW OR NO CLOUDS BELOW 12,000 FEET WITH NO
SIGNIFICANT WEATHER AND/OR OBSTRUCTIONS TO VISIBILITY.


SDZ001>005-009-010-012>017-291600-
NORTHWEST AND NORTH CENTRAL SOUTH DAKOTA

CITY           SKY/WX    TMP DP  RH WIND       PRES   REMARKS
BUFFALO          N/A     57  38  48 NW18      30.09F
FAITH            N/A     58  41  53 N17       30.12R
MOBRIDGE       SUNNY     59  41  51 NW23G30   30.02S
$$

SDZ012>016-024>037-041>051-057-063-072>074-291600-
SOUTHWEST AND SOUTH CENTRAL SOUTH DAKOTA

CITY           SKY/WX    TMP DP  RH WIND       PRES   REMARKS
RAPID CTY ARPT SUNNY     59  36  42 N10       30.17R
PIERRE         SUNNY     59  41  51 NW20      30.06S
CUSTER         SUNNY     54  20  26 NW10G24   30.19S
ELLSWORTH AFB  SUNNY     58  35  41 N15       30.16R
PHILIP         SUNNY     62  40  44 N17G23    30.12R
PINE RIDGE     SUNNY     57  41  55 NW7       30.17S
SPEARFISH      FAIR      55  34  44 NW15G22   30.19S
WINNER         FAIR      61  44  53 N18G24    30.09R
$$

SDZ004>011-016>023-039-040-291600-
NORTHEAST SOUTH DAKOTA

CITY           SKY/WX    TMP DP  RH WIND       PRES   REMARKS
ABERDEEN       PTSUNNY   57  42  57 NW22G31   29.96R
WATERTOWN      CLOUDY    52  46  80 NW18      29.93R
BROOKINGS      CLOUDY    54  47  77 NW18      29.94R
SISSETON         N/A     53  49  86 N18G29    29.90R
$$

SDZ017-020-022-023-036>040-048>070-291600-
SOUTHEAST SOUTH DAKOTA

CITY           SKY/WX    TMP DP  RH WIND       PRES   REMARKS
SIOUX FALLS    MOSUNNY   60  47  61 NW22      29.97R
HURON          CLOUDY    58  45  62 NW21G28   29.99R
CHAMBERLAIN    SUNNY     62  44  51 W17G26    30.05S
MITCHELL       SUNNY     60  44  55 NW24G31   30.01R
$$

ABBREVIATIONS USED IN REMARKS
   TC - TEMPERATURE IN CELSIUS
  WCI - WIND CHILL INDEX
   HX - HEAT INDEX
  VSB - VISIBILITY





USA.gov is the U.S. government's official web portal to all federal, state and local government web resources and services.